Tracking 18980 objects as of 20-Feb-2018
HD Live streaming from Space Station
objects crossing your sky now

COSMOS 44

Track COSMOS 44 now!
10-day predictions
COSMOS 44 is classified as:


NORAD ID: 876
Int'l Code: 1964-053A
Perigee: 592.3 km
Apogee: 784.5 km
Inclination: 65.1 °
Period: 98.4 minutes
Semi major axis: 7059 km
RCS: 4.598 m2 (large)
Launch date: August 28, 1964
Source: Commonwealth of Independent States (former USSR) (CIS)
Launch site: TYURATAM MISSILE AND SPACE COMPLEX (TTMTR)
aabbcc
Your satellite tracking list
Your tracking list is empty




NASA's NSSDC Master Catalog

Two Line Element Set (TLE):
1 00876U 64053A   18050.13041096 -.00000088  00000-0  86046-5 0  9993
2 00876  65.0606 287.5268 0136085   6.7504 353.5388 14.63691827844085
Source of the keplerian elements: AFSPC